Regional Weather Roundup
Issued by NWS

Home | Current Version | Previous Version | Graphics & Text | Print | Product List | Glossary On
Versions: 1 2 3 4 5 6 7 8 9 10 11 12 13 14 15 16 17 18 19 20 21 22 23 24 25 26 27 28 29 30 31 32 33 34 35 36 37 38 39 40 41 42 43 44 45 46 47 48 49 50
000
ASUS43 KOAX 230010
RWRNE

WEATHER ROUNDUP FOR NEBRASKA
NATIONAL WEATHER SERVICE OMAHA NE
700 PM CDT FRI SEP 22 2017

NOTES: SATELLITE DATA IS BEING USED TO AUGMENT CLOUD COVER ABOVE
       12000 FEET.
       "FAIR" INDICATES FEW OR NO CLOUDS BELOW 12,000 FEET WITH NO
       SIGNIFICANT WEATHER AND/OR OBSTRUCTIONS TO VISIBILITY.


NEZ001>004-019>022-054>056-230100-
NEBRASKA PANHANDLE

CITY           SKY/WX    TMP DP  RH WIND       PRES   REMARKS
SCOTTSBLUFF    CLOUDY    69  43  38 E6        29.85R
6HR MIN TEMP:  65; 6HR MAX TEMP:  75;

ALLIANCE       CLEAR     64  42  44 N9        29.83R
6HR MIN TEMP:  64; 6HR MAX TEMP:  71;

CHADRON        CLEAR     62  40  44 NE17G24   29.86R
6HR MIN TEMP:  62; 6HR MAX TEMP:  76;

GORDON         FAIR      62  42  49 N16       29.86S
6HR MIN TEMP:  62; 6HR MAX TEMP:  68;

KIMBALL        MOCLDY    68  44  43 NE14G21   29.85F
SIDNEY         CLOUDY    69  45  41 N15G22    29.84R
6HR MIN TEMP:  66; 6HR MAX TEMP:  76;

$$

NEZ057>060-069>072-079>082-230100-
SOUTHWEST NEBRASKA

CITY           SKY/WX    TMP DP  RH WIND       PRES   REMARKS
NORTH PLATTE   MOCLDY    89  53  29 S12       29.70R
6HR MIN TEMP:  87; 6HR MAX TEMP:  94; 6HR PCP: TRACE;

IMPERIAL       CLOUDY    88  31  13 SW9       29.72R
6HR MIN TEMP:  81; 6HR MAX TEMP:  94;

LEXINGTON      CLOUDY    90  52  27 SE15      29.73R
MCCOOK         PTCLDY    92  55  28 S23G32    29.71R HX  90
6HR MIN TEMP:  92; 6HR MAX TEMP:  99; 6HR PCP: TRACE;

OGALLALA       CLOUDY    79  46  31 NE9       29.75S
$$

NEZ005>010-023>029-035>040-094-230100-
NORTH CENTRAL NEBRASKA

CITY           SKY/WX    TMP DP  RH WIND       PRES   REMARKS
VALENTINE      CLOUDY    67  47  48 N15       29.82R
6HR MIN TEMP:  67; 6HR MAX TEMP:  75;

AINSWORTH      MOCLDY    66  53  62 N16       29.81S
BROKEN BOW     CLOUDY    90  55  30 S20G28    29.73R
6HR MIN TEMP:  90; 6HR MAX TEMP:  97;

O`NEILL        CLOUDY    69  64  85 N10       29.77R
ORD            PTCLDY    89  55  31 S17G28    29.70R
6HR MIN TEMP:  89; 6HR MAX TEMP:  97;

THEDFORD       CLOUDY    69  52  54 N13       29.80S
$$

NEZ041-046>049-061>064-073>077-083>087-230100-
SOUTH CENTRAL NEBRASKA

CITY           SKY/WX    TMP DP  RH WIND       PRES   REMARKS
GRAND ISLAND   CLOUDY    87  65  47 S21       29.77R
6HR MIN TEMP:  87; 6HR MAX TEMP:  96;

AURORA         CLOUDY    86  63  45 S14G20    29.78S
HASTINGS       CLOUDY    90  58  33 S14G25    29.79R
6HR MIN TEMP:  90; 6HR MAX TEMP:  97;

HEBRON         MOCLDY    91  62  38 S14G20    29.81S HX  91
HOLDREGE       CLOUDY    88  55  32 SE21G26   29.75R
KEARNEY        CLOUDY    89  59  36 S23G35    29.75R
YORK           PTCLDY    88  63  42 S13       29.80S
$$

NEZ011>018-030>034-042>045-230100-
NORTHEAST NEBRASKA

CITY           SKY/WX    TMP DP  RH WIND       PRES   REMARKS
NORFOLK        PTCLDY    87  64  46 S18G26    29.73R
6HR MIN TEMP:  87; 6HR MAX TEMP:  94;

ALBION         MOCLDY    87  65  47 S16       29.75R
BLAIR          PTCLDY    87  69  53 SE13G20   29.82S HX  91
COLUMBUS       CLOUDY    88  65  46 S15G21    29.77R HX  90
FREMONT        PTCLDY    88  65  46 SE12      29.81R
TEKAMAH        CLEAR     87  68  52 SE13      29.79R HX  90
6HR MIN TEMP:  87; 6HR MAX TEMP:  95;

WAYNE          PTCLDY    85  63  47 S15       29.76R
$$

NEZ050>053-065>068-078-088>093-230100-
SOUTHEAST NEBRASKA

CITY           SKY/WX    TMP DP  RH WIND       PRES   REMARKS
LINCOLN        PTCLDY    89  66  46 S18G25    29.81R HX  91
6HR MIN TEMP:  89; 6HR MAX TEMP:  97;

OMAHA EPPLEY   MOCLDY    89  67  47 S21       29.82R HX  92
6HR MIN TEMP:  89; 6HR MAX TEMP:  95;

BEATRICE       PTCLDY    89  68  50 SE15      29.83S HX  92
FALLS CITY     CLEAR     86  67  52 S13G22    29.88R
6HR MIN TEMP:  86; 6HR MAX TEMP:  91;

NEBRASKA CITY  CLEAR     85  69  57 S17       29.87R
PLATTSMOUTH    CLEAR     87  69  56 SE14G22   29.85R HX  91
$$

NEZ044-045-051>053-067-230100-
OMAHA AREA

CITY           SKY/WX    TMP DP  RH WIND       PRES   REMARKS
OMAHA EPPLEY   MOCLDY    89  67  47 S21       29.82R HX  92
6HR MIN TEMP:  89; 6HR MAX TEMP:  95;

BLAIR          PTCLDY    87  69  53 SE13G20   29.82S HX  91
FREMONT        PTCLDY    88  65  46 SE12      29.81R
MILLARD        PTCLDY    90  69  50 SE15      29.82S HX  95
OFFUTT AFB     PTCLDY    86  68  54 SE16G24   29.83R HX  90
PLATTSMOUTH    CLEAR     87  69  56 SE14G22   29.85R HX  91
WAHOO          FAIR      88  65  45 S15G23    29.80S
$$




USA.gov is the U.S. government's official web portal to all federal, state and local government web resources and services.